Date String (YYYY-MM-DD hh:mm:ss) UTC,Instrument flags,Ambient pressure (hPa),Sample flow (lpm),Bypass flow (lpm),Sample temperature (°C),Ambient temperature (°C),ASC tube jacket temperature (°C),LED temperature (°C),Box temperature (°C),Sample RH (%),Span deviation,Mass concentration (μg/m³),Mass concentration (μg/m³),Mass concentration (μg/m³)
DateTimeUTC,F1_M11,P_M11,Q1_M11,Q2_M11,T1_M11,T2_M11,T3_M11,T4_M11,T5_M11,U1_M11,ZSPAN_M11,X0_M11,X2_M11,X1_M11
2023-02-02 00:00:00,,0826.1,5.01,0.00,27.4,26.0,00.0,36.3,29.2,06.8,0000.0,0021.16,0011.31,0009.89
2023-02-02 00:01:00,,0826.1,5.00,0.00,27.4,26.0,00.0,36.3,29.2,06.8,0000.0,0021.44,0011.36,0009.94
2023-02-02 00:02:00,,0826.1,4.99,0.00,27.4,26.0,00.0,36.3,29.2,06.8,0000.0,0021.57,0011.43,0009.96
2023-02-02 00:03:00,,0826.1,5.00,0.00,27.4,26.0,00.0,36.3,29.2,06.8,0000.0,0021.69,0011.44,0009.97
2023-02-02 00:04:00,,0826.1,5.01,0.00,27.4,26.0,00.0,36.3,29.2,06.8,0000.0,0021.91,0011.47,0009.96
2023-02-02 00:05:00,,0826.1,5.00,0.00,27.4,26.0,00.0,36.3,29.2,06.7,0000.0,0022.17,0011.42,0009.91
2023-02-02 00:06:00,,0826.1,5.00,0.00,27.4,26.0,00.0,36.3,29.2,06.7,0000.0,0021.00,0011.29,0009.84
2023-02-02 00:07:00,,0826.1,5.01,0.00,27.4,26.0,00.0,36.3,29.2,06.8,0000.0,0021.05,0011.16,0009.81
2023-02-02 00:08:00,,0826.1,5.01,0.00,27.4,25.9,00.0,36.3,29.2,06.8,0000.0,0020.43,0011.15,0009.79
2023-02-02 00:09:00,,0826.2,5.00,0.00,27.4,25.9,00.0,36.3,29.2,06.8,0000.0,0020.80,0011.15,0009.77
2023-02-02 00:10:00,,0826.2,4.99,0.00,27.4,25.9,00.0,36.3,29.2,06.8,0000.0,0021.49,0011.02,0009.72
2023-02-02 00:11:00,,0826.2,4.99,0.00,27.4,25.9,00.0,36.2,29.2,06.7,0000.0,0021.02,0010.94,0009.64
2023-02-02 00:12:00,,0826.2,4.99,0.00,27.4,25.9,00.0,36.2,29.2,06.7,0000.0,0020.73,0010.82,0009.54
2023-02-02 00:13:00,,0826.2,4.99,0.00,27.4,25.9,00.0,36.2,29.2,06.7,0000.0,0020.76,0010.61,0009.40
2023-02-02 00:14:00,,0826.2,5.00,0.00,27.4,25.9,00.0,36.2,29.1,06.7,0000.0,0020.75,0010.47,0009.28
2023-02-02 00:15:00,,0826.2,5.00,0.00,27.4,25.9,00.0,36.2,29.1,06.7,0000.0,0020.34,0010.33,0009.19
2023-02-02 00:16:00,,0826.1,5.00,0.00,27.3,25.9,00.0,36.2,29.1,06.8,0000.0,0019.53,0010.22,0009.13
2023-02-02 00:17:00,,0826.1,5.00,0.00,27.3,25.8,00.0,36.2,29.1,06.8,0000.0,0019.88,0010.16,0009.09
2023-02-02 00:18:00,,0826.1,5.00,0.00,27.3,25.8,00.0,36.2,29.1,06.8,0000.0,0019.00,0010.12,0009.02
2023-02-02 00:19:00,,0826.2,5.00,0.00,27.3,25.8,00.0,36.2,29.1,06.8,0000.0,0018.75,0010.05,0008.97
2023-02-02 00:20:00,,0826.2,5.00,0.00,27.3,25.8,00.0,36.2,29.1,06.7,0000.1,0018.44,0010.01,0008.92
2023-02-02 00:21:00,,0826.2,5.00,0.00,27.3,25.8,00.0,36.2,29.1,06.8,0002.7,0017.42,0009.99,0008.89
2023-02-02 00:22:00,,0826.1,4.99,0.00,27.3,25.8,00.0,36.2,29.1,06.8,0002.7,0017.20,0009.95,0008.88
2023-02-02 00:23:00,,0826.2,5.01,0.00,27.3,25.7,00.0,36.2,29.1,06.8,0002.4,0017.64,0009.94,0008.88
2023-02-02 00:24:00,,0826.1,4.99,0.00,27.3,25.7,00.0,36.2,29.1,06.7,0002.8,0017.47,0009.99,0008.91
2023-02-02 00:25:00,,0826.1,5.00,0.00,27.3,25.7,00.0,36.2,29.0,06.7,0002.8,0017.18,0010.00,0008.91
2023-02-02 00:26:00,,0826.1,5.00,0.00,27.3,25.7,00.0,36.1,29.0,06.7,0000.0,0017.22,0009.98,0008.89
2023-02-02 00:27:00,,0826.2,5.01,0.00,27.3,25.7,00.0,36.1,29.1,06.7,0000.0,0017.08,0010.01,0008.89
2023-02-02 00:28:00,,0826.2,5.01,0.00,27.3,25.7,00.0,36.1,29.1,06.8,0000.0,0016.55,0010.06,0008.91
2023-02-02 00:29:00,,0826.2,5.00,0.00,27.3,25.7,00.0,36.1,29.1,06.7,0000.0,0016.60,0010.07,0008.93
2023-02-02 00:30:00,,0826.2,5.01,0.00,27.3,25.7,00.0,36.1,29.1,06.7,0000.0,0016.81,0010.12,0008.96
2023-02-02 00:31:00,,0826.2,4.99,0.00,27.3,25.7,00.0,36.1,29.0,06.8,0000.0,0016.66,0010.08,0008.97
2023-02-02 00:32:00,,0826.2,5.00,0.00,27.3,25.7,00.0,36.1,29.0,06.8,0000.0,0016.64,0010.12,0009.01
2023-02-02 00:33:00,,0826.2,5.00,0.00,27.3,25.6,00.0,36.1,29.0,06.8,0000.0,0016.80,0010.20,0009.05
2023-02-02 00:34:00,,0826.2,5.00,0.00,27.3,25.6,00.0,36.1,29.0,06.8,0000.0,0017.32,0010.26,0009.11
2023-02-02 00:35:00,,0826.2,5.00,0.00,27.2,25.6,00.0,36.1,29.0,06.8,0000.0,0017.83,0010.33,0009.18
2023-02-02 00:36:00,,0826.2,5.00,0.00,27.2,25.6,00.0,36.1,29.0,06.8,0000.0,0018.00,0010.42,0009.23
2023-02-02 00:37:00,,0826.2,5.00,0.00,27.2,25.5,00.0,36.1,29.0,06.8,0000.0,0018.25,0010.55,0009.30
2023-02-02 00:38:00,,0826.2,5.01,0.00,27.2,25.5,00.0,36.1,29.0,06.9,0001.6,0018.20,0010.63,0009.41
2023-02-02 00:39:00,,0826.2,5.01,0.00,27.2,25.5,00.0,36.1,29.0,06.9,0001.0,0018.75,0010.85,0009.61
2023-02-02 00:40:00,,0826.2,5.00,0.00,27.2,25.5,00.0,36.0,28.9,06.9,0000.7,0019.73,0011.12,0009.82
2023-02-02 00:41:00,,0826.2,5.00,0.00,27.2,25.5,00.0,36.0,28.9,07.1,0000.4,0020.62,0011.49,0010.13
2023-02-02 00:42:00,,0826.2,5.00,0.00,27.2,25.5,00.0,36.0,28.9,07.1,0000.5,0021.71,0011.86,0010.45
2023-02-02 00:43:00,,0826.4,5.01,0.00,27.2,25.5,00.0,36.0,28.9,07.2,0000.5,0022.59,0012.27,0010.81
2023-02-02 00:44:00,,0826.2,5.00,0.00,27.1,25.5,00.0,36.0,28.9,07.2,0000.2,0023.84,0012.68,0011.22
2023-02-02 00:45:00,,0826.2,5.01,0.00,27.1,25.5,00.0,36.0,28.9,07.3,0000.2,0025.48,0013.09,0011.60
2023-02-02 00:46:00,,0826.2,5.01,0.00,27.1,25.5,00.0,36.0,28.9,07.3,0000.5,0027.17,0013.48,0011.95
2023-02-02 00:47:00,,0826.2,5.00,0.00,27.1,25.5,00.0,36.0,28.9,07.3,0000.4,0028.47,0013.90,0012.38
2023-02-02 00:48:00,,0826.3,5.00,0.00,27.1,25.4,00.0,36.0,28.9,07.3,0000.3,0029.30,0014.34,0012.80
2023-02-02 00:49:00,,0826.3,4.99,0.00,27.1,25.4,00.0,36.0,28.9,07.4,0000.1,0030.41,0014.78,0013.20
2023-02-02 00:50:00,,0826.3,5.00,0.00,27.1,25.4,00.0,35.9,28.9,07.4,0000.3,0031.17,0015.04,0013.47
2023-02-02 00:51:00,,0826.3,5.01,0.00,27.1,25.4,00.0,35.9,28.9,07.3,0000.2,0031.25,0015.22,0013.68
2023-02-02 00:52:00,,0826.3,5.00,0.00,27.1,25.4,00.0,35.9,28.8,07.3,0000.3,0031.81,0015.36,0013.81
2023-02-02 00:53:00,,0826.3,5.00,0.00,27.1,25.4,00.0,35.9,28.8,07.4,0001.0,0032.22,0015.57,0013.95
2023-02-02 00:54:00,,0826.3,5.01,0.00,27.1,25.4,00.0,35.9,28.8,07.3,0000.9,0032.18,0015.64,0014.01
2023-02-02 00:55:00,,0826.3,5.00,0.00,27.0,25.3,00.0,35.9,28.8,07.2,0000.7,0031.58,0015.54,0013.94
2023-02-02 00:56:00,,0826.3,5.00,0.00,27.0,25.3,00.0,35.9,28.8,07.2,0000.9,0030.15,0015.39,0013.79
2023-02-02 00:57:00,,0826.4,4.99,0.00,27.0,25.3,00.0,35.9,28.8,07.3,0000.7,0028.29,0015.31,0013.69
2023-02-02 00:58:00,,0826.4,4.99,0.00,27.0,25.3,00.0,35.9,28.7,07.3,0000.9,0027.44,0015.21,0013.58
2023-02-02 00:59:00,,0826.4,5.00,0.00,27.0,25.3,00.0,35.9,28.7,07.2,0001.8,0027.15,0015.08,0013.50
